EW2575 Weather Reports


time (UTC)temp
F
wind
direction
speed
knots
gust
knots
rain 1hr
in
rain 24hr
in
rain mn
in
humidity
%
barometer
mb
20260504011542 59 173 1.7 3.5 0.00 0.00 0.00 79 1017.7
20260504011041 59 91 1.7 3.5 0.00 0.00 0.00 79 1017.6
20260504010540 59 113 1.7 7.0 0.00 0.00 0.00 80 1017.6
20260504010040 59 84 4.3 7.0 0.00 0.00 0.00 81 1017.4
20260504005540 59 103 3.5 6.1 0.00 0.00 0.00 83 1017.4
20260504005039 59 119 3.5 5.2 0.00 0.00 0.00 84 1017.3
20260504004548 59 65 2.6 3.5 0.00 0.00 0.00 81 1017.3
20260504004037 59 65 0.0 1.7 0.00 0.00 0.00 79 1017.5
20260504003539 59 65 0.0 1.7 0.00 0.00 0.00 79 1017.6
20260504003037 60 65 0.0 7.0 0.00 0.00 0.00 79 1017.6
20260504002537 60 88 1.7 7.8 0.00 0.00 0.00 79 1017.5
20260504002040 60 107 5.2 7.8 0.00 0.00 0.00 80 1017.5
20260504001537 59 138 5.2 7.8 0.00 0.00 0.00 82 1017.5
20260504001034 59 123 5.2 7.0 0.00 0.00 0.00 85 1017.6
20260504000533 59 120 4.3 6.1 0.00 0.00 0.00 88 1017.7
20260504000032 59 80 1.7 3.5 0.00 0.00 0.00 89 1017.8
20260503235531 59 80 2.6 3.5 0.00 0.00 0.00 89 1017.9
20260503235031 59 80 1.7 3.5 0.00 0.00 0.00 88 1018.0
20260503234531 59 80 1.7 3.5 0.00 0.00 0.00 88 1017.9
20260503234031 59 304 0.0 1.7 0.00 0.00 0.00 88 1018.1
20260503233529 60 304 0.0 1.7 0.00 0.00 0.00 88 1017.9
20260503233031 59 304 0.9 2.6 0.00 0.00 0.00 89 1017.8
20260503232530 59 304 0.9 2.6 0.00 0.00 0.00 89 1017.8
20260503232028 60 304 0.9 1.7 0.00 0.00 0.00 90 1017.7
20260503231528 60 304 0.0 2.6 0.00 0.00 0.00 90 1017.8
20260503231027 60 304 0.0 5.2 0.00 0.00 0.00 91 1017.8
20260503230526 59 100 2.6 6.1 0.00 0.00 0.00 92 1017.6
20260503230023 58 102 4.3 6.1 0.00 0.00 0.00 94 1017.6
20260503225522 59 108 0.0 1.7 0.00 0.00 0.00 94 1017.7
20260503225023 59 108 0.9 3.5 0.00 0.00 0.00 94 1017.7
20260503224523 59 108 0.9 3.5 0.00 0.00 0.00 94 1017.7
20260503224023 60 108 0.9 2.6 0.00 0.00 0.00 94 1017.7
20260503223524 60 108 0.9 2.6 0.00 0.00 0.00 94 1017.8
20260503223023 60 108 0.9 1.7 0.00 0.00 0.00 94 1017.8
20260503222522 60 108 0.0 0.9 0.00 0.00 0.00 94 1017.9
20260503222022 60 108 0.0 2.6 0.00 0.00 0.00 94 1017.8
20260503221522 60 108 0.9 2.6 0.00 0.00 0.00 94 1017.9
20260503221024 60 108 0.9 1.7 0.00 0.00 0.00 93 1017.8
20260503220522 61 108 0.0 1.7 0.00 0.00 0.00 93 1017.7
20260503220021 61 108 0.0 3.5 0.00 0.00 0.00 94 1017.6
20260503215521 61 108 0.9 5.2 0.00 0.00 0.00 94 1017.5
20260503215023 61 96 1.7 6.1 0.00 0.00 0.00 94 1017.4
20260503214520 61 102 3.5 6.1 0.00 0.00 0.00 94 1017.2
20260503214021 60 88 2.6 5.2 0.00 0.00 0.00 94 1017.2
20260503213520 60 284 0.0 0.9 0.00 0.00 0.00 94 1017.3
20260503213023 60 284 0.0 1.7 0.00 0.00 0.00 93 1017.3
20260503212520 60 284 0.0 2.6 0.00 0.00 0.00 93 1017.2
20260503212019 60 284 0.0 2.6 0.00 0.00 0.00 93 1017.2
20260503211529 61 284 1.7 3.5 0.00 0.00 0.00 92 1017.2
20260503211019 61 284 0.9 2.6 0.00 0.00 0.00 92 1017.0
20260503210519 62 284 0.9 4.3 0.00 0.00 0.00 91 1016.7
20260503210019 62 284 2.6 4.3 0.00 0.00 0.00 91 1016.6
20260503205526 62 284 0.0 2.6 0.00 0.00 0.00 91 1016.5
20260503205019 62 284 0.9 2.6 0.00 0.00 0.00 92 1016.3
20260503204519 62 284 0.0 1.7 0.00 0.00 0.00 92 1016.4
20260503204017 62 284 0.0 0.0 0.00 0.00 0.00 91 1016.4
20260503203517 62 284 0.0 0.0 0.00 0.00 0.00 91 1016.5
20260503203020 62 284 0.0 0.9 0.00 0.00 0.00 91 1016.5
20260503202517 62 284 0.0 0.9 0.00 0.00 0.00 91 1016.6
20260503202018 62 284 0.0 0.0 0.00 0.00 0.00 90 1016.5
20260503201517 62 284 0.0 0.0 0.00 0.00 0.00 90 1016.5
20260503201019 62 284 0.0 1.7 0.00 0.00 0.00 90 1016.4
20260503200517 63 284 0.0 2.6 0.00 0.00 0.00 89 1016.4
20260503200016 63 284 0.9 2.6 0.00 0.00 0.00 89 1016.3
20260503195517 63 284 0.9 2.6 0.00 0.00 0.00 88 1016.3
20260503195017 64 317 0.0 6.1 0.00 0.00 0.00 87 1016.3
20260503194515 63 131 3.5 6.1 0.00 0.00 0.00 87 1016.2
20260503194015 63 103 2.6 6.1 0.00 0.00 0.00 88 1016.3
20260503193516 63 98 3.5 10.4 0.00 0.00 0.00 89 1016.2
20260503193031 63 109 5.2 9.6 0.00 0.00 0.00 90 1016.2
20260503192514 63 71 6.1 8.7 0.00 0.00 0.00 91 1016.2
20260503192015 62 110 3.5 6.1 0.00 0.00 0.00 92 1016.1
20260503191515 61 116 3.5 7.0 0.00 0.00 0.00 93 1016.2
20260503191018 61 117 3.5 7.0 0.00 0.00 0.00 93 1016.3
20260503190515 61 113 2.6 5.2 0.00 0.00 0.00 93 1016.2
20260503190024 61 128 1.7 3.5 0.00 0.00 0.00 93 1016.4
20260503185512 61 281 0.0 2.6 0.00 0.00 0.00 93 1016.4
20260503185012 61 281 0.9 6.1 0.00 0.00 0.00 92 1016.5
20260503184514 61 281 1.7 8.7 0.00 0.00 0.00 92 1016.6
20260503184012 61 264 5.2 8.7 0.00 0.00 0.00 91 1016.4
20260503183511 62 265 2.6 7.0 0.00 0.00 0.00 91 1016.2
20260503183010 62 275 5.2 7.0 0.00 0.00 0.00 90 1016.1
20260503182514 62 249 0.0 3.5 0.00 0.00 0.00 90 1016.0
20260503182016 62 249 0.9 6.1 0.00 0.00 0.00 89 1016.0
20260503181510 62 240 3.5 7.8 0.00 0.00 0.00 89 1016.0
20260503181014 63 253 5.2 7.8 0.00 0.00 0.00 88 1016.0
20260503180511 63 295 1.7 7.0 0.00 0.00 0.00 88 1015.8
20260503180012 63 275 4.3 7.0 0.00 0.00 0.00 88 1015.8
20260503175510 63 313 2.6 6.1 0.00 0.00 0.00 88 1015.6
20260503175008 64 281 1.7 6.1 0.00 0.00 0.00 88 1015.7
20260503174509 64 278 1.7 3.5 0.00 0.00 0.00 88 1015.7
20260503174008 63 333 0.0 3.5 0.00 0.00 0.00 88 1015.9
20260503173507 63 53 1.7 2.6 0.00 0.00 0.00 88 1016.0
20260503173015 63 53 0.0 3.5 0.00 0.00 0.00 89 1016.1
20260503172505 63 5 0.9 6.1 0.00 0.00 0.00 89 1016.4
20260503172005 63 284 1.7 6.1 0.00 0.00 0.00 89 1016.5
20260503171505 62 241 3.5 6.1 0.00 0.00 0.00 89 1016.5
20260503171004 62 265 1.7 7.0 0.00 0.00 0.00 89 1016.6
20260503170504 62 270 3.5 7.0 0.00 0.00 0.00 88 1016.7
20260503160112 64 286 3.5 7.0 0.00 0.00 0.00 85 1016.6
20260503150557 65 271 6.1 10.4 0.00 0.00 0.00 83 1017.0
20260503150103 65 271 4.3 10.4 0.00 0.00 0.00 83 1017.0
20260503131051 68 277 8.7 12.2 0.00 0.00 0.00 77 1017.3
20260503130551 68 263 6.1 8.7 0.00 0.00 0.00 75 1017.1
20260503110532 63 269 4.3 7.8 0.00 0.00 0.00 86 1018.5
20260503090510 61 267 2.6 7.0 0.00 0.00 0.00 86 1018.1
20260503081605 60 340 2.6 7.0 0.00 0.00 0.00 82 1017.5
20260503081054 60 355 1.7 4.3 0.00 0.00 0.00 82 1017.4
20260503080556 60 63 2.6 7.8 0.00 0.00 0.00 82 1017.3
20260503072543 58 117 2.6 5.2 0.00 0.00 0.00 86 1018.0
20260503072046 57 125 2.6 5.2 0.00 0.00 0.00 85 1017.9
20260503071543 57 120 2.6 5.2 0.00 0.00 0.00 84 1017.8
20260503071038 57 120 2.6 6.1 0.00 0.00 0.00 83 1017.6
20260503070538 57 126 4.3 6.1 0.00 0.00 0.00 83 1017.4
20260503054534 57 113 1.7 5.2 0.00 0.00 0.00 86 1017.2
20260503054034 57 113 2.6 6.1 0.00 0.00 0.00 86 1017.1
20260503053529 57 106 3.5 7.0 0.00 0.00 0.00 86 1016.9
20260503053032 57 110 3.5 7.0 0.00 0.00 0.00 87 1016.8
20260503052531 56 126 5.2 7.8 0.00 0.00 0.00 88 1016.8
20260503052031 56 113 4.3 7.0 0.00 0.00 0.00 88 1016.8
20260503051529 56 107 3.5 6.1 0.00 0.00 0.00 88 1017.0
20260503051027 56 100 4.3 7.0 0.00 0.00 0.00 88 1017.0
20260503050527 56 95 4.3 7.0 0.00 0.00 0.00 87 1017.2
20260503050026 56 105 4.3 7.0 0.00 0.00 0.00 87 1017.2
20260503045526 56 73 3.5 7.0 0.00 0.00 0.00 87 1017.3
20260503045025 56 115 4.3 7.0 0.00 0.00 0.00 87 1017.2
20260503044527 56 107 5.2 7.0 0.00 0.00 0.00 87 1017.3
20260503044024 56 91 4.3 7.0 0.00 0.00 0.00 87 1017.3
20260503043524 56 107 4.3 7.0 0.00 0.00 0.00 87 1017.4
20260503043024 56 115 4.3 7.8 0.00 0.00 0.00 88 1017.6
20260503042523 56 109 6.1 7.8 0.00 0.00 0.00 87 1017.6
20260503042023 56 126 6.1 7.8 0.00 0.00 0.00 87 1017.5
20260503041523 56 130 5.2 7.8 0.00 0.00 0.00 87 1017.5
20260503041022 56 115 5.2 7.0 0.00 0.00 0.00 87 1017.6
20260503040520 56 113 4.3 6.1 0.00 0.00 0.00 87 1017.6
20260503040022 57 139 3.5 6.1 0.00 0.00 0.00 87 1017.7
20260503035520 57 140 2.6 5.2 0.00 0.00 0.00 88 1017.7
20260503035019 57 123 2.6 3.5 0.00 0.00 0.00 87 1017.7
20260503034519 57 109 2.6 5.2 0.00 0.00 0.00 87 1017.7
20260503034018 57 115 1.7 5.2 0.00 0.00 0.00 87 1017.9
20260503033519 57 133 2.6 4.3 0.00 0.00 0.00 86 1017.7
20260503033025 57 123 2.6 6.1 0.00 0.00 0.00 86 1017.7
20260503032518 57 121 1.7 7.8 0.00 0.00 0.00 86 1017.6
20260503032023 57 104 4.3 7.8 0.00 0.00 0.00 86 1017.5
20260503031517 57 105 5.2 7.8 0.00 0.00 0.00 87 1017.4
20260503031016 57 117 5.2 7.0 0.00 0.00 0.00 87 1017.4
20260503030519 57 95 5.2 7.0 0.00 0.00 0.00 87 1017.4
20260503030114 57 108 4.3 7.0 0.00 0.00 0.00 87 1017.5
20260503025514 57 110 5.2 7.0 0.00 0.00 0.00 87 1017.6
20260503025013 57 119 5.2 7.0 0.00 0.00 0.00 87 1017.7
20260503024512 57 108 5.2 7.0 0.00 0.00 0.00 87 1017.8
20260503024010 57 113 4.3 7.8 0.00 0.00 0.00 87 1017.9
20260503023510 57 111 5.2 6.1 0.00 0.00 0.00 87 1018.1
20260503023009 57 95 5.2 6.1 0.00 0.00 0.00 86 1018.1
20260503022509 57 98 4.3 6.1 0.00 0.00 0.00 86 1018.2
20260503022011 57 116 4.3 7.0 0.00 0.00 0.00 86 1018.2
20260503021513 57 117 4.3 7.0 0.00 0.00 0.00 85 1018.0
20260503021008 57 121 4.3 7.0 0.00 0.00 0.00 85 1018.0
20260503020508 57 116 4.3 7.0 0.00 0.00 0.00 85 1018.0
20260503020007 57 115 5.2 7.8 0.00 0.00 0.00 85 1018.0
20260503015506 57 116 6.1 7.8 0.00 0.00 0.00 86 1018.1
20260503015006 57 115 5.2 7.0 0.00 0.00 0.00 86 1018.1
20260503014505 57 121 4.3 7.0 0.00 0.00 0.00 86 1018.2
20260503014004 57 114 5.2 7.0 0.00 0.00 0.00 86 1018.3
20260503013503 57 117 5.2 7.0 0.00 0.00 0.00 86 1018.3
20260503013002 57 111 4.3 6.1 0.00 0.00 0.00 86 1018.5
20260503012503 57 99 4.3 7.0 0.00 0.00 0.00 85 1018.6